User: anonymous   Login
Location: Campillo
(40.8621°N, 4.2488°W)
Time: 16:23:39
(UTC+00:00)
Language:

Meteor 1-11 Rocket - Orbit

View from above orbital plane
View from above orbital plane
View from above satellite
View from above satellite

Ground track
Ground track

The orbit data is extracted from the following two-line orbital elements,

1  5918U 72022B   21207.77588981  .00000027  00000-0  81396-5 0  9992
2  5918  81.2399 314.2187 0059416  71.1443 289.6156 14.05889475528843
Epoch (UTC): 26 July 2021 18:37:16
Eccentricity: 0.0059416
inclination: 81.2399°
perigee height: 830 km
apogee height: 916 km
right ascension of ascending node: 314.2187°
argument of perigee: 71.1443°
revolutions per day: 14.05889475
mean anomaly at epoch: 289.6156°
orbit number at epoch: 52884

The dashed part of the orbit path shows where the satellite is in the earth's shadow,  

DLR